Location: UMBC
(39.2555°N, 76.7093°W)
Time: 03:40:28
(UTC+02:00)

Amateur Radio Satellites - All Passes

Search period start: 27 June 2017 03:10
Search period end: 28 June 2017 03:10
Location: UMBC, 39.2555°N, 76.7093°W

Satellite Date Start Highest point End Downlink Frequencies (MHz)
Time Altitude Azimuth
SEEDS 27 Jun 03:16:07 03:18:08 13° 269° (W) 03:20:08 437.485
PCSat 27 Jun 03:24:19 03:29:44 65° 60° (ENE) 03:35:06 145.827
DELFI C3 27 Jun 03:40:44 03:44:31 49° 74° (ENE) 03:48:17 145.870
AO-85 27 Jun 03:44:14 03:47:32 24° 310° (NW) 03:50:47 145.980
M-CUBED/EXP-1 PRIME 27 Jun 03:44:30 03:45:29 11° 98° (E) 03:46:29 437.505
AO-73 27 Jun 03:45:20 03:49:16 29° 264° (W) 03:53:15 145.935
HO-68 27 Jun 03:48:38 03:50:13 11° 273° (W) 03:51:48 435.675
UNISAT 6 27 Jun 03:48:41 03:49:01 10° 89° (E) 03:49:21 437.425
BEESAT 2 27 Jun 03:58:57 04:02:55 77° 300° (WNW) 04:06:58 435.950
STRAND 1 27 Jun 04:05:02 04:08:10 16° 298° (WNW) 04:11:16 437.568
PRISM 27 Jun 04:08:47 04:11:19 16° 94° (E) 04:13:50 437.425
Oscar 11 27 Jun 04:12:03 04:15:06 18° 267° (W) 04:18:09 .
NO-84 27 Jun 04:14:15 04:18:04 55° 320° (NW) 04:22:11 435.350 FM
FO-29 27 Jun 04:19:23 04:26:54 46° 97° (E) 04:34:11 435.910
EO-88 27 Jun 04:20:15 04:23:55 77° 258° (WSW) 04:27:36 145.990 - 145.960
ZACube-1 27 Jun 04:24:30 04:25:31 11° 271° (W) 04:26:33 437.345
YUBILEINY 27 Jun 04:31:23 04:40:11 86° 94° (E) 04:49:04 435.215
BEESAT 3 27 Jun 04:36:56 04:39:01 14° 316° (NW) 04:41:07 437.485
TIGRISAT 27 Jun 04:39:18 04:43:35 35° 97° (E) 04:47:44 435.000
LO-87 27 Jun 04:39:36 04:42:14 20° 69° (ENE) 04:44:54 145.935 - 145.965
O/OREOS (USA 219) 27 Jun 04:40:25 04:44:24 29° 299° (WNW) 04:48:22 437.305
RS-15 27 Jun 04:40:57 04:52:49 54° 311° (NW) 05:04:54 29.354- 29.394
SO-50 27 Jun 04:59:45 05:04:07 46° 54° (NE) 05:08:30 436.795
ESTCUBE 1 27 Jun 05:06:02 05:09:55 29° 69° (ENE) 05:13:48 437.505/2401.250
PCSat 27 Jun 05:09:17 05:12:31 16° 256° (WSW) 05:15:44 145.827
M-CUBED/EXP-1 PRIME 27 Jun 05:16:23 05:20:05 54° 290° (WNW) 05:24:03 437.505
DELFI C3 27 Jun 05:18:30 05:19:33 11° 269° (W) 05:20:36 145.870
UNISAT 6 27 Jun 05:21:35 05:26:13 72° 286° (WNW) 05:30:44 437.425
AIST 2D 27 Jun 05:34:35 05:36:44 15° 93° (E) 05:38:52 435.315
PRISM 27 Jun 05:42:54 05:46:43 38° 288° (WNW) 05:50:32 437.425
NO-84 27 Jun 05:54:07 05:56:29 15° 340° (NNW) 05:58:57 435.350 FM
POLYITAN 1 27 Jun 05:54:38 05:56:54 14° 92° (E) 05:59:10 437.675
FO-29 27 Jun 06:04:34 06:11:40 39° 294° (WNW) 06:18:41 435.910
QB50P2 27 Jun 06:04:45 06:07:58 20° 94° (E) 06:11:08 145.880/145.840
LO-87 27 Jun 06:12:44 06:15:32 22° 265° (W) 06:18:22 145.935 - 145.965
TIGRISAT 27 Jun 06:16:28 06:19:59 22° 293° (WNW) 06:23:27 435.000
EO-79 27 Jun 06:28:11 06:32:06 34° 97° (E) 06:35:58 145.935-145.965
YUBILEINY 27 Jun 06:32:15 06:38:08 19° 296° (WNW) 06:44:06 435.215
VELOX 1 27 Jun 06:37:15 06:41:35 69° 76° (ENE) 06:45:58 145.980
DUCHIFAT 1 27 Jun 06:40:24 06:44:21 37° 98° (E) 06:48:17 145.980
SO-50 27 Jun 06:41:08 06:44:13 18° 250° (WSW) 06:47:19 436.795
ESTCUBE 1 27 Jun 06:43:01 06:46:41 24° 265° (W) 06:50:22 437.505/2401.250
SPROUT 27 Jun 06:47:23 06:51:39 84° 258° (WSW) 06:55:57 437.525
NANOSAT C BR1 27 Jun 06:49:34 06:53:46 55° 100° (E) 06:57:54 145.865
DX 1 27 Jun 06:52:41 06:56:30 32° 70° (ENE) 07:00:22 434.975-435.025
RS-15 27 Jun 07:00:01 07:09:08 23° 342° (NNW) 07:18:14 29.354- 29.394
UKube-1 27 Jun 07:06:51 07:10:36 31° 70° (ENE) 07:14:24 .
AIST 2D 27 Jun 07:06:59 07:09:57 26° 289° (WNW) 07:12:54 435.315
50 SAT 27 Jun 07:20:04 07:23:25 75° 259° (W) 07:26:48 437.505
Oscar 19 27 Jun 07:24:40 07:27:15 14° 91° (E) 07:29:49 437.125/150
POLYITAN 1 27 Jun 07:28:48 07:32:55 46° 287° (WNW) 07:36:58 437.675
QB50P2 27 Jun 07:39:58 07:43:47 32° 290° (WNW) 07:47:33 145.880/145.840
BUGSAT 1 27 Jun 07:44:21 07:48:33 60° 100° (E) 07:52:43 437.445
EO-79 27 Jun 08:04:32 08:07:36 20° 293° (WNW) 08:10:40 145.935-145.965
DUCHIFAT 1 27 Jun 08:16:51 08:19:43 18° 294° (WNW) 08:22:34 145.980
NANOSAT C BR1 27 Jun 08:27:02 08:28:58 13° 296° (WNW) 08:30:53 145.865
MOZHAYETS 4 27 Jun 08:27:03 08:29:25 14° 64° (ENE) 08:31:49
Gurwin Techsat 1B 27 Jun 08:28:14 08:33:09 37° 98° (E) 08:38:03 435.225
DX 1 27 Jun 08:29:28 08:32:43 21° 265° (W) 08:35:59 434.975-435.025
UKube-1 27 Jun 08:43:21 08:46:39 21° 265° (W) 08:49:57 .
ITUPSAT 1 27 Jun 08:58:22 09:02:57 47° 72° (ENE) 09:07:34 437.325
Oscar 19 27 Jun 09:01:54 09:06:59 65° 287° (WNW) 09:12:02 437.125/150
BEESAT 27 Jun 09:07:11 09:11:52 59° 73° (ENE) 09:16:36 436.000
NO-84 27 Jun 09:11:59 09:14:52 17° 23° (NNE) 09:17:44 435.350 FM
RS-15 27 Jun 09:18:47 09:27:56 23° 19° (NNE) 09:36:49 29.354- 29.394
AO-7 27 Jun 09:21:08 09:27:01 21° 93° (E) 09:32:52 .
BUGSAT 1 27 Jun 09:21:45 09:23:22 12° 297° (WNW) 09:24:58 437.445
ITAMSAT 1 27 Jun 09:43:23 09:47:32 23° 95° (E) 09:51:39 435.822/435.867
KKS-1 27 Jun 09:49:53 09:51:47 13° 63° (ENE) 09:53:41 437.445
MOZHAYETS 4 27 Jun 10:01:28 10:06:03 60° 259° (W) 10:10:40
Gurwin Techsat 1B 27 Jun 10:08:31 10:12:54 27° 294° (WNW) 10:17:17 435.225
AO-85 27 Jun 10:35:10 10:38:19 21° 49° (NE) 10:41:35 145.980
ITUPSAT 1 27 Jun 10:37:50 10:41:00 17° 267° (W) 10:44:11 437.325
CUBESAT XI-V 27 Jun 10:46:39 10:51:17 75° 75° (ENE) 10:55:53 437.345
BEESAT 27 Jun 10:47:38 10:50:00 14° 269° (W) 10:52:22 436.000
NO-84 27 Jun 10:48:49 10:53:11 66° 41° (NE) 10:57:26 435.350 FM
AO-7 27 Jun 11:12:09 11:20:33 80° 290° (WNW) 11:28:54 .
BEESAT 3 27 Jun 11:15:04 11:18:33 27° 51° (NE) 11:21:57 437.485
ITAMSAT 1 27 Jun 11:22:13 11:27:06 40° 290° (WNW) 11:31:57 435.822/435.867
KKS-1 27 Jun 11:23:25 11:27:47 62° 258° (WSW) 11:32:12 437.445
RS-15 27 Jun 11:32:09 11:44:06 56° 49° (NE) 11:55:24 29.354- 29.394
STARS 27 Jun 11:48:22 11:52:44 79° 257° (WSW) 11:57:10 437.465
DOVE 4 27 Jun 11:58:09 12:02:24 27° 95° (E) 12:06:46 437.250
XW-2D 27 Jun 12:09:44 12:10:49 11° 91° (E) 12:11:53 145.860 - 145.880
AO-85 27 Jun 12:14:54 12:18:48 39° 244° (WSW) 12:22:58 145.980
BEESAT 2 27 Jun 12:17:34 12:21:28 43° 54° (NE) 12:25:19 435.950
XW-2B 27 Jun 12:17:58 12:19:57 14° 92° (E) 12:21:55 145.730 - 145.750
LilacSat-2 27 Jun 12:19:01 12:21:19 15° 93° (E) 12:23:35 437.200
NO-84 27 Jun 12:27:35 12:30:20 17° 238° (WSW) 12:33:01 435.350 FM
XW-2C 27 Jun 12:32:43 12:35:40 21° 95° (E) 12:38:35 145.795 - 145.815
CUTE-I 27 Jun 12:37:52 12:42:19 26° 95° (E) 12:46:44 437.470
KAITUO 1B 27 Jun 12:42:38 12:45:31 21° 95° (E) 12:48:23 145.475/437.950
BEESAT 3 27 Jun 12:52:42 12:56:01 25° 247° (WSW) 12:59:16 437.485
ISS 27 Jun 13:02:30 13:03:12 11° 128° (SE) 13:03:55 437.550
AO-7 27 Jun 13:06:52 13:12:01 18° 310° (NW) 13:17:10 .
O/OREOS (USA 219) 27 Jun 13:11:40 13:15:54 40° 64° (ENE) 13:20:06 437.305
NUDT-PHONESAT 27 Jun 13:15:14 13:18:53 57° 100° (E) 13:22:30 437.300
HO-68 27 Jun 13:24:11 13:29:38 23° 93° (E) 13:35:02 435.675
DOVE 4 27 Jun 13:35:36 13:40:02 34° 289° (WNW) 13:44:39 437.250
XW-2F 27 Jun 13:36:19 13:39:59 56° 285° (WNW) 13:43:38 145.980 - 146.000
STRAND 1 27 Jun 13:39:03 13:44:10 78° 75° (ENE) 13:49:21 437.568
XW-2A 27 Jun 13:39:44 13:40:51 11° 92° (E) 13:41:58 145.665 - 145.685
XW-2D 27 Jun 13:41:38 13:45:14 44° 286° (WNW) 13:48:47 145.860 - 145.880
CUTE 1.7 + AOD 2 27 Jun 13:44:06 13:47:28 23° 95° (E) 13:50:49 437.475
RS-15 27 Jun 13:45:13 13:56:17 46° 252° (WSW) 14:06:51 29.354- 29.394
XW-2B 27 Jun 13:50:49 13:54:16 35° 288° (WNW) 13:57:41 145.730 - 145.750
LilacSat-2 27 Jun 13:52:17 13:55:40 31° 288° (WNW) 13:59:01 437.200
Tancredo 1 27 Jun 13:55:49 13:58:50 86° 328° (NNW) 14:01:51 437.200
BEESAT 2 27 Jun 13:56:24 13:58:51 16° 250° (WSW) 14:01:16 435.950
XW-2C 27 Jun 14:06:47 14:09:46 23° 290° (WNW) 14:12:44 145.795 - 145.815
AAUSAT CUBESAT 2 27 Jun 14:10:13 14:12:01 13° 91° (E) 14:13:49 437.432
CUBEBUG 2 27 Jun 14:13:24 14:17:24 27° 95° (E) 14:21:16 437.445
KAITUO 1B 27 Jun 14:16:32 14:19:25 22° 290° (WNW) 14:22:18 145.475/437.950
CUTE-I 27 Jun 14:17:28 14:22:25 39° 291° (WNW) 14:27:21 437.470
FO-29 27 Jun 14:32:48 14:36:39 17° 56° (NE) 14:40:43 435.910
ZACube-1 27 Jun 14:35:21 14:37:45 14° 91° (E) 14:40:06 437.345
ISS 27 Jun 14:35:58 14:39:14 74° 323° (NW) 14:42:31 437.550
UWE-3 27 Jun 14:43:11 14:47:19 33° 96° (E) 14:51:19 435.000/436.395/437.385
YUBILEINY 27 Jun 14:43:16 14:51:31 41° 74° (ENE) 14:59:39 435.215
O/OREOS (USA 219) 27 Jun 14:52:01 14:54:56 17° 260° (W) 14:57:51 437.305
SEEDS 27 Jun 14:58:11 15:02:21 74° 283° (WNW) 15:06:29 437.485
PRISM 27 Jun 14:59:14 14:59:46 10° 63° (ENE) 15:00:19 437.425
XW-2A 27 Jun 15:10:37 15:13:44 33° 287° (WNW) 15:16:48 145.665 - 145.685
HO-68 27 Jun 15:10:44 15:17:48 64° 290° (WNW) 15:24:50 435.675
CUTE 1.7 + AOD 2 27 Jun 15:19:43 15:23:15 27° 290° (WNW) 15:26:46 437.475
STRAND 1 27 Jun 15:22:24 15:23:54 11° 271° (W) 15:25:24 437.568
Tancredo 1 27 Jun 15:32:56 15:34:47 15° 339° (NNW) 15:36:38 437.200
AO-73 27 Jun 15:33:43 15:38:06 59° 100° (E) 15:42:20 145.935
TIGRISAT 27 Jun 15:36:43 15:40:38 28° 69° (ENE) 15:44:37 435.000
AAUSAT CUBESAT 2 27 Jun 15:43:46 15:47:43 47° 286° (WNW) 15:51:40 437.432
CUBEBUG 2 27 Jun 15:49:55 15:53:55 28° 291° (WNW) 15:57:50 437.445
Oscar 11 27 Jun 15:58:35 16:02:55 87° 100° (E) 16:07:12 .
M-CUBED/EXP-1 PRIME 27 Jun 16:02:02 16:05:11 44° 255° (WSW) 16:08:20 437.505
ZACube-1 27 Jun 16:10:01 16:14:18 47° 287° (WNW) 16:18:27 437.345
ISS 27 Jun 16:14:07 16:16:11 15° 341° (NNW) 16:18:15 437.550
FO-29 27 Jun 16:14:30 16:20:34 85° 257° (WSW) 16:27:32 435.910
UNISAT 6 27 Jun 16:18:35 16:23:10 85° 78° (ENE) 16:27:54 437.425
UWE-3 27 Jun 16:20:00 16:23:32 22° 293° (WNW) 16:27:00 435.000/436.395/437.385
PRISM 27 Jun 16:30:29 16:34:29 64° 258° (WSW) 16:38:31 437.425
YUBILEINY 27 Jun 16:40:10 16:48:15 42° 273° (W) 16:56:16 435.215
POLYITAN 1 27 Jun 16:48:30 16:48:40 10° 62° (ENE) 16:48:51 437.675
DELFI C3 27 Jun 16:53:00 16:56:57 84° 283° (WNW) 17:00:54 145.870
QB50P2 27 Jun 16:57:11 16:59:29 14° 65° (ENE) 17:01:46 145.880/145.840
HO-68 27 Jun 17:01:50 17:04:08 12° 309° (NW) 17:06:26 435.675
AO-73 27 Jun 17:11:52 17:13:45 13° 297° (WNW) 17:15:38 145.935
TIGRISAT 27 Jun 17:13:18 17:17:13 27° 265° (W) 17:21:13 435.000
EO-79 27 Jun 17:19:46 17:23:06 23° 68° (ENE) 17:26:28 145.935-145.965
EO-88 27 Jun 17:23:35 17:27:07 48° 285° (WNW) 17:30:37 145.990 - 145.960
DUCHIFAT 1 27 Jun 17:31:15 17:34:41 24° 69° (ENE) 17:38:09 145.980
AIST 2D 27 Jun 17:39:16 17:42:49 84° 77° (ENE) 17:46:23 435.315
LO-87 27 Jun 17:39:59 17:43:10 28° 97° (E) 17:46:19 145.935 - 145.965
NANOSAT C BR1 27 Jun 17:40:24 17:44:14 34° 71° (ENE) 17:48:07 145.865
PCSat 27 Jun 18:04:33 18:09:56 75° 116° (ESE) 18:15:22 145.827
FO-29 27 Jun 18:04:48 18:06:51 12° 276° (W) 18:08:57 435.910
POLYITAN 1 27 Jun 18:19:33 18:23:48 73° 258° (WSW) 18:28:07 437.675
VELOX 1 27 Jun 18:29:44 18:32:04 14° 92° (E) 18:34:22 145.980
QB50P2 27 Jun 18:30:42 18:34:49 49° 260° (W) 18:38:59 145.880/145.840
BUGSAT 1 27 Jun 18:32:49 18:36:34 35° 71° (ENE) 18:40:23 437.445
SPROUT 27 Jun 18:35:01 18:37:56 18° 93° (E) 18:40:51 437.525
ESTCUBE 1 27 Jun 18:35:18 18:39:47 75° 102° (ESE) 18:44:15 437.505/2401.250
Oscar 19 27 Jun 18:40:09 18:43:48 20° 64° (ENE) 18:47:28 437.125/150
Tancredo 1 27 Jun 18:46:20 18:48:05 14° 20° (NNE) 18:49:49 437.200
EO-79 27 Jun 18:55:01 18:58:42 28° 264° (W) 19:02:25 145.935-145.965
DUCHIFAT 1 27 Jun 19:06:40 19:10:14 26° 264° (W) 19:13:49 145.980
LO-87 27 Jun 19:13:58 19:16:22 17° 292° (WNW) 19:18:46 145.935 - 145.965
SO-50 27 Jun 19:14:10 19:17:18 18° 110° (ESE) 19:20:25 436.795
NANOSAT C BR1 27 Jun 19:17:03 19:20:01 18° 266° (W) 19:23:01 145.865
ISS 27 Jun 19:29:01 19:31:21 18° 22° (NNE) 19:33:41 437.550
Gurwin Techsat 1B 27 Jun 19:48:08 19:53:17 54° 72° (ENE) 19:58:27 435.225
JUGNU 27 Jun 19:49:37 19:50:52 11° 176° (S) 19:52:05 437.505
PCSat 27 Jun 19:50:17 19:53:55 18° 315° (NW) 19:57:34 145.827
VELOX 1 27 Jun 20:04:28 20:08:46 50° 287° (WNW) 20:13:03 145.980
BUGSAT 1 27 Jun 20:09:12 20:12:00 18° 267° (W) 20:14:53 437.445
SPROUT 27 Jun 20:09:58 20:13:57 37° 288° (WNW) 20:17:54 437.525
ESTCUBE 1 27 Jun 20:14:57 20:15:57 11° 298° (WNW) 20:16:57 437.505/2401.250
50 SAT 27 Jun 20:15:56 20:19:20 62° 284° (WNW) 20:22:41 437.505
DX 1 27 Jun 20:17:08 20:21:31 71° 102° (ESE) 20:25:52 434.975-435.025
Oscar 19 27 Jun 20:17:46 20:22:44 49° 260° (W) 20:27:44 437.125/150
AO-7 27 Jun 20:19:03 20:25:49 29° 57° (ENE) 20:32:37 .
Tancredo 1 27 Jun 20:21:03 20:24:05 77° 37° (NE) 20:27:07 437.200
UKube-1 27 Jun 20:29:58 20:34:17 65° 102° (ESE) 20:38:34 .
SO-50 27 Jun 20:53:02 20:57:24 46° 306° (NW) 21:01:46 436.795
ITAMSAT 1 27 Jun 21:00:09 21:04:45 33° 68° (ENE) 21:09:23 435.822/435.867
ITUPSAT 1 27 Jun 21:01:45 21:03:50 13° 91° (E) 21:05:54 437.325
ISS 27 Jun 21:04:53 21:08:12 82° 218° (SW) 21:11:28 437.550
BEESAT 27 Jun 21:09:34 21:12:30 16° 92° (E) 21:15:24 436.000
Gurwin Techsat 1B 27 Jun 21:29:59 21:33:31 18° 268° (W) 21:37:05 435.225
DX 1 27 Jun 21:55:57 21:57:05 11° 298° (WNW) 21:58:13 434.975-435.025
MOZHAYETS 4 27 Jun 21:57:41 22:01:50 33° 97° (E) 22:05:57
UKube-1 27 Jun 22:08:16 22:09:43 12° 298° (WNW) 22:11:10 .
AO-7 27 Jun 22:09:43 22:17:57 66° 255° (WSW) 22:26:17 .
ITUPSAT 1 27 Jun 22:37:19 22:42:04 63° 286° (WNW) 22:46:45 437.325
ITAMSAT 1 27 Jun 22:39:42 22:44:10 29° 264° (W) 22:48:40 435.822/435.867
CUBESAT XI-V 27 Jun 22:45:01 22:48:20 20° 93° (E) 22:51:40 437.345
BEESAT 27 Jun 22:45:54 22:50:31 50° 288° (WNW) 22:55:07 436.000
DOVE 4 27 Jun 23:03:41 23:06:43 20° 67° (ENE) 23:09:51 437.250
XW-2C 27 Jun 23:15:30 23:15:55 10° 65° (ENE) 23:16:23 145.795 - 145.815
KKS-1 27 Jun 23:15:38 23:19:25 26° 96° (E) 23:23:11 437.445
SRMSAT 27 Jun 23:26:39 23:28:05 11° 182° (S) 23:29:33 437.500
MOZHAYETS 4 27 Jun 23:35:14 23:38:47 23° 293° (WNW) 23:42:19
STARS 27 Jun 23:39:27 23:42:43 20° 94° (E) 23:45:58 437.465
HO-68 27 Jun 23:53:37 23:57:49 17° 55° (NE) 00:02:02 435.675
NUDT-PHONESAT 27 Jun 23:53:45 23:56:42 22° 70° (ENE) 23:59:38 437.300
CUTE-I 27 Jun 23:58:29 00:03:22 38° 69° (ENE) 00:08:17 437.470
XW-2F 28 Jun 00:15:34 00:19:18 53° 74° (ENE) 00:23:01 145.980 - 146.000
XW-2D 28 Jun 00:21:06 00:24:54 70° 76° (ENE) 00:28:44 145.860 - 145.880
CUBESAT XI-V 28 Jun 00:21:35 00:25:49 38° 289° (WNW) 00:30:03 437.345
XW-2B 28 Jun 00:30:08 00:33:58 88° 82° (E) 00:37:49 145.730 - 145.750
LilacSat-2 28 Jun 00:32:10 00:36:01 81° 255° (WSW) 00:39:53 437.200
CUTE 1.7 + AOD 2 28 Jun 00:36:30 00:39:01 16° 66° (ENE) 00:41:32 437.475
DOVE 4 28 Jun 00:40:30 00:44:12 31° 264° (W) 00:48:02 437.250
XW-2C 28 Jun 00:45:50 00:49:37 56° 260° (W) 00:53:24 145.795 - 145.815
KKS-1 28 Jun 00:52:06 00:55:53 27° 292° (WNW) 00:59:40 437.445
KAITUO 1B 28 Jun 00:54:16 00:58:00 57° 260° (W) 01:01:44 145.475/437.950
CUBEBUG 2 28 Jun 01:10:29 01:13:56 21° 67° (ENE) 01:17:26 437.445
STARS 28 Jun 01:15:04 01:19:07 35° 290° (WNW) 01:23:09 437.465
NUDT-PHONESAT 28 Jun 01:27:29 01:30:29 22° 265° (W) 01:33:28 437.300
ZACube-1 28 Jun 01:31:06 01:32:37 11° 63° (ENE) 01:34:07 437.345
HO-68 28 Jun 01:37:18 01:44:30 86° 73° (ENE) 01:51:45 435.675
UWE-3 28 Jun 01:38:56 01:42:40 25° 68° (ENE) 01:46:26 435.000/436.395/437.385
CUTE-I 28 Jun 01:39:06 01:43:28 26° 265° (W) 01:47:53 437.470
XW-2A 28 Jun 01:40:06 01:43:28 57° 75° (ENE) 01:46:52 145.665 - 145.685
SEEDS 28 Jun 01:48:15 01:52:24 63° 75° (ENE) 01:56:33 437.485
STRAND 1 28 Jun 01:51:04 01:55:31 29° 96° (E) 01:59:56 437.568
RS-15 28 Jun 01:54:13 02:04:45 37° 105° (ESE) 02:15:28 29.354- 29.394
NO-84 28 Jun 02:06:43 02:08:30 13° 120° (ESE) 02:10:22 435.350 FM
CUTE 1.7 + AOD 2 28 Jun 02:10:25 02:14:29 43° 261° (W) 02:18:32 437.475
AO-73 28 Jun 02:27:31 02:31:46 40° 72° (ENE) 02:36:04 145.935
AO-85 28 Jun 02:28:08 02:32:15 83° 117° (ESE) 02:36:12 145.980
AAUSAT CUBESAT 2 28 Jun 02:32:06 02:36:13 88° 258° (WSW) 02:40:21 437.432
BEESAT 3 28 Jun 02:40:17 02:44:12 64° 119° (ESE) 02:48:12 437.485
CUBEBUG 2 28 Jun 02:45:57 02:50:14 38° 263° (W) 02:54:39 437.445
Oscar 11 28 Jun 02:51:51 02:56:06 56° 74° (ENE) 03:00:22 .
PCSat 28 Jun 02:53:32 02:58:47 47° 57° (ENE) 03:03:59 145.827
